Location: Newark
(12.4436°N, 0.6167°W)
Time: 01:30:45
(UTC+00:00)

Transit 2A - Pass Details

Date: 08 December 2019
Orbit: 601 x 958 km, 66.7° (Epoch: 23 January)

Event Time Altitude Azimuth Distance (km) Brightness Sun altitude
Rises 18:30:56 0° 311° (NW) 3,013 9.5 -13.1°
Reaches altitude 10° 18:33:52 10° 291° (WNW) 2,161 9.1 -13.8°
Maximum altitude 18:37:03 17° 250° (WSW) 1,783 9.1 -14.5°
Drops below altitude 10° 18:40:26 10° 210° (SSW) 2,311 9.2 -15.3°
Sets 18:43:45 0° 191° (S) 3,318 9.7 -16.0°
